星链-36559(STARLINK-36559)

导读 | 豆包AI

STARLINK-36559是美国SpaceX星链星座卫星,于2026年1月22日发射入轨。星链星座旨在构建全球卫星互联网,为偏远地区、海上及航空等场景提供宽带网络服务。该卫星延续星链设计,部署于近地轨道,通过大规模组网实现信号覆盖,进一步扩充星链星座的服务规模与覆盖能力。

基本信息
目录编号:
67555
目录名称:
STARLINK-36559
国际标识:
2026-014Z
轨道中心:
EARTH
卫星名称:
星链-36559
卫星全名:
星链-36559(STARLINK-36559)
卫星状态:
在轨 (已飞行123 天)
发射日期:
2026-01-22 UTC
国别 :
美国 (US)
星等 :
--
轨道信息
数据来源 国际轨道数据 AOE轨道数据
星历时间 2026-05-24T10:43:21+0800
1天前
查看轨道信息
2026-05-19T01:00:00+0800
6天前
查看轨道信息
半长轴 6843.668km 6843.729km
偏心率 0.0001219 0.0001598
轨道倾角 97.287° 97.284°
近地点辐角 77.614° 100.777°
升交点赤经 31.196° 25.867°
平近点角 282.524° 320.493°
近地点 464.696km 464.498km
远地点 466.366km 466.686km
周期 93.906分钟 93.907分钟
每日圈数 15.334494 15.334288
详细信息
固有亮度:
5
最大亮度:
2.5
卫星平台:
Starlink V1.0
覆盖范围:
全球
运营商:
太空探索技术公司
运营商所在国:
美国
制造商(研发单位):
太空探索技术公司
制造商所在国:
美国
使用方式:
暂无
卫星简介
Starlink 计划是 SpaceX 推出的全球卫星互联网项目,通过发射低轨道卫星,为全球尤其是偏远地区提供高速、低延迟的互联网服务。自 2019 年起,Starlink 已部署数千颗卫星,旨在缩小全球数字鸿沟,推动互联网普及。该项目还为军事、航空等行业提供通信支持,带来广泛经济效益。
2D轨道图
3D轨道图
轨道高度分析图
轨道倾角分析图
轨道综合分析图
查看轨道综合分析图